BEIDOU 12 (C11)

Last updated on Jan. 24, 2021, 6:19 a.m. UTC

1 38250U 12018A   21023.57555743 -.00000073  00000-0  00000-0 0  9990
2 38250  56.7558  10.3965 0024603 249.3675 110.4346  1.86234228 59594
UTC
Height (km)
Latitude
Longitude
Inclination
Orbital Period
UTC large
Height (km)
Speed (km/s)
/
Latitude / Longitude
Inclination (degrees)
Orbital Period (minutes)
Azimuth
Elevation
Range (km)
Doppler Factor
iOS Compass Heading
iOS Angle

Next 30 passes for location: Hong Kong

Rise time Rise Azimuth (degrees) Set time Set Azimuth (degrees) Duration Max altitude (degrees)

No matching passes for this satellites